sat.trackr.live / text

‹ back to catalog

STARLINK-4670

NORAD 53744 · 2022-107AW

PAYLOAD ACTIVE UNKNOWN

§ Identity

Operator
Country
US
Launch date
2022-09-05
Launch site
AFETR
Launch vehicle
Mass (kg)
RCS (m²)

Purposes: comms

External: N2YO · Heavens-Above · Gunter

§ Orbital elements

Epoch: 2026-05-24T18:21:48.257568Z

Period
95.44 min
Inclination
53.2149°
Eccentricity
0.0001174
Mean motion
15.08838629 rev/d
Perigee alt
538.9 km
Apogee alt
540.6 km
Semi-major
6,917.9 km
B*
3.6621e-5
RAAN
282.2270°
Arg perigee
89.0127°
Mean anomaly
271.1000°
Rev number
20,608

§ Raw data

STARLINK-46701 53744U 22107AW  26144.76514187  .00000295  00000+0  36621-4 0  99982 53744  53.2149 282.2270 0001174  89.0127 271.1000 15.08838629206089

JSON: /api/v1/satellites/53744 · /tle

For live sub-satellite position, see the globe view (requires WebGL).

§ Visibility from observer

Set your observer location to see the next 7 days of passes ≥ 10°. The values pass through the URL so the page stays shareable.

No JS? Fill the form by hand. The geolocation button needs JavaScript.